Location: Pasadena, ca
(34.1243°N, 118.1037°W)
Time: 17:52:59
(UTC-08:00)

Hubble Space Telescope - Pass Details

Date: 14 November 2017
Orbit: 537 x 541 km, 28.5° (Epoch: 22 November)

Event Time Altitude Azimuth Distance (km) Brightness Sun altitude
Rises 05:16:38 0° 214° (SSW) 2,664 4.1 -14.2°
Reaches altitude 10° 05:19:57 10° 186° (S) 1,777 3.5 -13.6°
Maximum altitude 05:21:53 13° 157° (SSE) 1,593 3.7 -13.2°
Drops below altitude 10° 05:23:49 10° 129° (SE) 1,780 4.5 -12.8°
Sets 05:27:08 0° 101° (ESE) 2,674 6.5 -12.1°
